軌道要素
Epoch 2012 Apr. 23.0 TT = JDT 2456040.5
T 2012 May 7.85535 TT MPCW
q 4.8373354 (2000.0) P Q
n 0.07766308 Peri. 157.76695 +0.42581726 -0.88926287
a 5.4407611 Node 266.69310 +0.80293453 +0.45646806
e 0.1109083 Incl. 9.63001 +0.41710406 +0.02912825
P 12.69
From 160 observations 2011 Oct. 24-2016 Apr. 1, mean residual 0".4.
|